Bismarck, ND

2:36 PM CDT on October 18, 2017 (GMT -0500)
Bismarck Municipal

Weather History for KBIS - December, 2012

Change the Weather History Date:

Monday, December 10, 2012

  Actual Average Record
Temperature  
Mean Temperature 22 °F 18 °F  
Max Temperature 26 °F 27 °F 64 °F (1890)
Min Temperature 18 °F 8 °F -26 °F (1919)
Degree Days  
Heating Degree Days 43 47  
Month to date heating degree days 394 457  
Since 1 July heating degree days 2391 2443  
Cooling Degree Days 0 0  
Month to date cooling degree days 0 0  
Year to date cooling degree days 599 520  
Moisture  
Dew Point 9 °F    
Average Humidity 77    
Maximum Humidity 92    
Minimum Humidity 62    
Precipitation  
Precipitation 0.01 in 0.02 in 0.29 in (1909)
Month to date precipitation 0.15 0.16  
Year to date precipitation 14.42 17.52  
Snow  
Snow 0.10 in 0.30 in 5.00 in (1909)
Month to date snowfall 2.1 2.8  
Since 1 July snowfall 12.6 14.0  
Snow Depth 2.00 in    
Sea Level Pressure  
Sea Level Pressure 29.85 in    
Wind  
Wind Speed 8 mph (WSW)    
Max Wind Speed 16 mph    
Max Gust Speed 24 mph    
Visibility 8 miles    
Events Snow    
T = Trace of Precipitation, MM = Missing Value Source: NWS Daily Summary

Daily Weather History Graph

Daily Weather History Graph

Search for Another Location

Airport or City:

Trip Planner

Search our weather history database for the weather conditions in past years. The results will help you decide how hot, cold, wet, or windy it might be!

Date:

Astronomy

Dec. 10, 2012 Rise Set
Actual Time 8:17 AM CST 4:54 PM CST
Civil Twilight 7:42 AM CST 5:29 PM CST
Nautical Twilight 7:03 AM CST 6:08 PM CST
Astronomical Twilight 6:27 AM CST 6:45 PM CST
Moon 4:55 AM CST (12/10) 2:51 PM CST (12/10)
Length of Visible Light 9h 47m
Length of Day
8h 37m
Waning Crescent, 10% of the Moon is Illuminated
Dec 10
Waning Crescent
Dec 13
New
Dec 19
First Quarter
Dec 28
Full
Jan 4
Last Quarter

Hourly Weather History & Observations

Time (CST) Temp. Windchill Dew Point Humidity Pressure Visibility Wind Dir Wind Speed Gust Speed Precip Events Conditions
12:41 AM -7.6 °F -22.1 °F -9.4 °F 92% 30.06 in 9.0 mi ESE 6.9 mph - N/A   Partly Cloudy
12:52 AM -6.0 °F -18.6 °F -9.9 °F 83% 30.18 in 10.0 mi ESE 5.8 mph - N/A   Partly Cloudy
1:52 AM -4.0 °F -17.8 °F -8.0 °F 83% 30.12 in 10.0 mi SE 6.9 mph - N/A   Clear
2:52 AM -2.9 °F - -7.1 °F 82% 30.09 in 10.0 mi Calm Calm - N/A   Clear
3:52 AM -2.0 °F -12.2 °F -7.1 °F 79% 30.04 in 10.0 mi SE 4.6 mph - N/A   Clear
4:52 AM 1.9 °F -9.2 °F -2.9 °F 80% 30.00 in 10.0 mi SE 5.8 mph - N/A   Clear
5:52 AM 5.0 °F -4.1 °F -0.9 °F 76% 29.96 in 10.0 mi SE 4.6 mph - N/A   Partly Cloudy
6:52 AM 8.1 °F -4.3 °F -0.9 °F 67% 29.93 in 10.0 mi South 8.1 mph - N/A   Scattered Clouds
7:52 AM 8.1 °F -4.3 °F -0.9 °F 67% 29.91 in 10.0 mi South 8.1 mph - N/A   Mostly Cloudy
8:52 AM 10.0 °F -1.9 °F 1.0 °F 67% 29.89 in 7.0 mi South 8.1 mph - 0.00 in Snow Light Snow
9:52 AM 10.9 °F -1.8 °F 3.9 °F 73% 29.87 in 10.0 mi South 9.2 mph - 0.00 in   Overcast
10:52 AM 12.9 °F 3.8 °F 6.1 °F 74% 29.86 in 10.0 mi SSW 5.8 mph - N/A   Overcast
11:52 AM 16.0 °F 5.3 °F 8.1 °F 71% 29.84 in 3.0 mi SW 8.1 mph - 0.00 in Snow Light Snow
12:52 PM 18.0 °F 7.7 °F 10.9 °F 74% 29.70 in 10.0 mi WSW 8.1 mph - N/A   Unknown
1:52 PM 21.0 °F 14.6 °F 14.0 °F 74% 29.68 in - SSW 4.6 mph - N/A   Scattered Clouds
2:52 PM 26.6 °F 15.2 °F 17.6 °F 69% 29.69 in 10.0 mi WNW 13.8 mph 18.4 mph N/A   Partly Cloudy
3:52 PM 25.0 °F 12.2 °F 15.1 °F 66% 29.71 in 10.0 mi WNW 16.1 mph - N/A   Clear
4:52 PM 24.1 °F 13.1 °F 14.0 °F 65% 29.73 in 10.0 mi WNW 11.5 mph - N/A   Mostly Cloudy
5:52 PM 25.0 °F 13.1 °F 15.1 °F 66% 29.75 in 10.0 mi WNW 13.8 mph 24.2 mph N/A   Overcast
6:52 PM 24.1 °F 13.1 °F 17.1 °F 75% 29.75 in 10.0 mi WNW 11.5 mph - N/A   Overcast
7:52 PM 24.1 °F 12.5 °F 19.0 °F 81% 29.75 in 10.0 mi West 12.7 mph - N/A   Overcast
8:20 PM 24.1 °F 14.4 °F 19.0 °F 81% 29.75 in 10.0 mi WNW 9.2 mph - N/A   Overcast
8:52 PM 23.0 °F 12.4 °F 18.0 °F 81% 29.75 in 6.0 mi West 10.4 mph - 0.00 in Snow Light Snow
9:10 PM 23.0 °F 11.7 °F 19.0 °F 85% 29.76 in 2.5 mi WNW 11.5 mph - 0.00 in Snow Light Snow
9:30 PM 21.9 °F 12.5 °F 18.0 °F 85% 29.76 in 3.0 mi WNW 8.1 mph - 0.00 in Snow Light Snow
9:50 PM 21.2 °F 11.7 °F 19.4 °F 93% 29.76 in 3.0 mi West 8.1 mph - 0.00 in Snow Light Snow
9:52 PM 21.9 °F 11.7 °F 19.0 °F 89% 29.76 in 3.0 mi West 9.2 mph - 0.00 in Snow Light Snow
10:52 PM 23.0 °F 14.7 °F 19.0 °F 85% 29.75 in 5.0 mi West 6.9 mph - 0.00 in Snow Light Snow
11:52 PM 24.1 °F 17.0 °F 19.9 °F 84% 29.75 in 8.0 mi West 5.8 mph - 0.00 in Snow Light Snow